Regional Weather Roundup
Issued by NWS

Home | Current Version | Previous Version | Text Only | Print | Product List | Glossary On
Versions: 1 2 3 4 5 6 7 8 9 10 11 12 13 14 15 16 17 18 19 20 21 22 23 24 25 26 27 28 29 30 31 32 33 34 35 36 37 38 39 40 41 42 43 44 45 46 47 48 49 50
000
ASUS43 KTOP 162259
RWRKS

WEATHER ROUNDUP FOR KANSAS
NATIONAL WEATHER SERVICE GOODLAND KS
600 PM CDT TUE SEP 16 2014

NOTE:  "FAIR" INDICATES FEW OR NO CLOUDS BELOW 12,000 FEET WITH NO
SIGNIFICANT WEATHER AND/OR OBSTRUCTIONS TO VISIBILITY.

KSZ001>006-013>018-027>032-041>047-170000-
NORTHWEST KANSAS

CITY           SKY/WX    TMP DP  RH WIND       PRES   REMARKS
GOODLAND       SUNNY     86  54  33 S10       29.98F
HAYS           MOSUNNY   81  63  54 S13G22    29.97F
HILL CITY      SUNNY     81  61  50 S10G20    29.97F
RUSSELL        SUNNY     76  61  59 SE8       29.98F
$$

KSZ061>065-074>080-084>089-170000-
SOUTHWEST KANSAS

CITY           SKY/WX    TMP DP  RH WIND       PRES   REMARKS
DODGE CITY     SUNNY     83  60  45 S21       29.99F
ELKHART          N/A     84  59  42 S13         N/A
GARDEN CITY    SUNNY     84  60  44 S18G25    29.98F
GREAT BEND     MOSUNNY   82  63  51 S13G20    29.98F
LIBERAL        SUNNY     86  61  42 SW16      30.02F
$$

KSZ066>073-081>083-090>101-170000-
SOUTHEAST KANSAS

CITY           SKY/WX    TMP DP  RH WIND       PRES   REMARKS
CHANUTE        SUNNY     76  62  62 SE6       30.04F
COFFEYVILLE    SUNNY     76  65  68 SE6       30.03F
HUTCHINSON     SUNNY     80  61  52 SE14      30.00F
NEWTON         SUNNY     79  59  50 S9G16     30.04F
PARSONS        SUNNY     76  64  66 VRB3      30.05F
WICHITA INTL   SUNNY     80  62  54 SE14      30.01F
WICHITA JABRA  SUNNY     79  61  53 S12       30.01F
WINFIELD       SUNNY     76  65  68 SE8       30.03F
$$

KSZ007>012-019>026-033>040-048>060-102>105-170000-
NORTHEAST KANSAS

CITY           SKY/WX    TMP DP  RH WIND       PRES   REMARKS
CONCORDIA      SUNNY     71  53  52 S9        30.02F
EMPORIA        SUNNY     75  58  55 SE7       30.03F
LAWRENCE       SUNNY     72  53  51 SE9       30.04F
MANHATTAN      SUNNY     76  51  41 SE7       30.01F
OLATHE IND     SUNNY     71  53  52 S6        30.06F
OLATHE EXE     SUNNY     69  53  56 SE7       30.05F
SALINA         SUNNY     77  59  53 S9        30.00F
TOPEKA BILLARD SUNNY     73  54  51 SE6       30.04F
TOPEKA FORBES  SUNNY     74  52  46 SE7       30.04F
$$


USA.gov is the U.S. government's official web portal to all federal, state and local government web resources and services.